PORTLAND ISLAND AK US NWS current weather conditions

sailwx.info

Wind from 130 at 1 knots gusting 4

Air temperature 1.7° C
Dewpoint -4.9° C

Last reported at 2020-Apr-05 07:32 UTC.
Time now 2020-Apr-05 08:14 UTC

Location: N 58°21' W 134°45'.
View on Google Maps.

See reports from other nearby stations

  
Tides and Currents Weather Stations Pressure Air Temp Water Temp Dewpoint Dewpoint Depression Visibility Wind Speed Wind Dir Waves Ship Positions
date/time (UTC)wind fromknots sea level pressurealtimeterstation pressurevisibilityair tempwater tempwave heightnotes
2020-Apr-05 07:32 130 1 gusting 4 1.7
2020-Apr-05 07:22 110 2 gusting 5 1.9
2020-Apr-05 07:12 110 2 gusting 5 1.9
2020-Apr-05 07:02 100 2 gusting 5 2.1
2020-Apr-05 06:52 090 4 gusting 6 2.2
2020-Apr-05 06:42 080 6 gusting 7 2.3
2020-Apr-05 06:32 080 6 gusting 7 2.4
2020-Apr-05 06:22 080 5 gusting 6 2.4
2020-Apr-05 06:12 090 5 gusting 6 2.4
2020-Apr-05 06:02 100 4 gusting 6 2.4
2020-Apr-05 05:52 100 2 gusting 5 2.5
2020-Apr-05 05:42 080 2 gusting 4 2.7
2020-Apr-05 05:32 090 4 gusting 5 2.7
2020-Apr-05 05:22 070 5 gusting 7 2.8
2020-Apr-05 05:12 050 5 gusting 7 2.9
2020-Apr-05 05:02 060 4 gusting 6 3.2
2020-Apr-05 04:52 070 4 gusting 6 3.4
2020-Apr-05 04:42 050 2 gusting 5 3.4
2020-Apr-05 04:32 030 4 gusting 6 3.4
2020-Apr-05 04:22 010 4 gusting 5 3.5
2020-Apr-05 04:12 340 4 gusting 5 3.6
2020-Apr-05 04:02 330 4 gusting 5 3.7
2020-Apr-05 03:52 320 4 gusting 5 4.0
2020-Apr-05 03:42 320 2 gusting 4 4.4
2020-Apr-05 03:32 330 2 gusting 4 4.6
2020-Apr-05 03:22 330 2 gusting 4 4.7
2020-Apr-05 03:12 320 4 gusting 5 4.9
2020-Apr-05 03:02 330 4 gusting 5 4.8
2020-Apr-05 02:52 330 4 gusting 6 4.8
2020-Apr-05 02:42 330 4 gusting 6 5.0
2020-Apr-05 02:32 290 4 gusting 6 5.0
2020-Apr-05 02:22 290 6 gusting 6 4.9
2020-Apr-05 02:12 280 6 gusting 7 4.9
2020-Apr-05 02:02 290 4 gusting 7 4.6
2020-Apr-05 01:52 330 4 gusting 6 4.3
2020-Apr-05 01:42 320 5 gusting 6 4.3
2020-Apr-05 01:32 320 5 gusting 6 4.3
2020-Apr-05 01:22 310 5 gusting 6 4.5
2020-Apr-05 01:12 310 5 gusting 6 4.6
2020-Apr-05 01:02 300 4 gusting 6 4.7
2020-Apr-05 00:52 300 4 gusting 6 4.8
2020-Apr-05 00:42 300 4 gusting 6 4.8
2020-Apr-05 00:32 290 4 gusting 6 4.6
2020-Apr-05 00:22 300 5 gusting 6 4.6
2020-Apr-05 00:12 300 6 gusting 7 4.3
2020-Apr-04 23:52 310 6 gusting 7 4.3
2020-Apr-04 23:42 310 6 gusting 7 4.1
2020-Apr-04 23:32 310 5 gusting 7 4.4
2020-Apr-04 23:22 310 5 gusting 7 4.3
2020-Apr-04 23:12 310 5 gusting 6 4.2
2020-Apr-04 23:02 310 5 gusting 6 4.0
2020-Apr-04 22:52 310 5 gusting 6 4.0
2020-Apr-04 22:42 310 5 gusting 6 3.9
2020-Apr-04 22:32 310 4 gusting 6 3.8
2020-Apr-04 22:22 320 4 gusting 6 3.8
2020-Apr-04 22:12 310 4 gusting 6 3.6
2020-Apr-04 22:02 280 4 gusting 5 3.2
2020-Apr-04 21:52 280 4 gusting 5 3.1
2020-Apr-04 21:42 280 4 gusting 5 3.0
2020-Apr-04 21:32 280 4 gusting 6 2.7
2020-Apr-04 21:22 290 4 gusting 6 3.0
2020-Apr-04 21:12 280 4 gusting 6 2.8
2020-Apr-04 21:02 270 4 gusting 6 2.5
2020-Apr-04 20:52 280 5 gusting 6 2.2
2020-Apr-04 20:42 270 5 gusting 6 1.9
2020-Apr-04 20:32 270 5 gusting 6 1.8
2020-Apr-04 20:22 280 4 gusting 6 1.9
2020-Apr-04 20:12 290 4 gusting 6 1.9
2020-Apr-04 20:02 290 4 gusting 6 1.7
2020-Apr-04 19:52 300 4 gusting 6 1.6
2020-Apr-04 19:42 310 5 gusting 6 1.5
2020-Apr-04 19:32 300 5 gusting 6 1.3
2020-Apr-04 19:22 300 4 gusting 6 1.3
2020-Apr-04 19:12 270 4 gusting 6 1.2
2020-Apr-04 19:02 270 4 gusting 6 1.2
2020-Apr-04 18:52 270 4 gusting 6 1.2
2020-Apr-04 18:42 280 2 gusting 4 1.1
2020-Apr-04 18:32 310 2 gusting 5 1.0
2020-Apr-04 18:22 280 1 gusting 4 0.8
2020-Apr-04 18:12 280 1 gusting 5 0.7
2020-Apr-04 18:02 280 2 gusting 6 0.7
2020-Apr-04 17:52 310 2 gusting 5 0.9
2020-Apr-04 17:42 230 1 gusting 2 1.3
2020-Apr-04 17:32 070 1 gusting 4 1.2
2020-Apr-04 17:22 070 1 gusting 2 1.3
2020-Apr-04 17:12 070 1 gusting 2 1.4
2020-Apr-04 17:02 070 1 gusting 2 1.1
2020-Apr-04 16:52 080 0 gusting 2 1.2
2020-Apr-04 16:42 0.8
2020-Apr-04 16:32 130 0 gusting 2 0.4
2020-Apr-04 16:22 100 1 gusting 4 0.2
2020-Apr-04 16:12 090 1 gusting 4 0.4
2020-Apr-04 16:02 110 1 gusting 2 -0.0
2020-Apr-04 15:52 090 2 gusting 4 -0.1
2020-Apr-04 15:42 130 1 gusting 4 0.1
2020-Apr-04 15:32 0.1
2020-Apr-04 15:22 -0.4
2020-Apr-04 15:12 130 0 gusting 2 -0.9
2020-Apr-04 15:02 090 1 gusting 4 -1.2
2020-Apr-04 14:42 050 2 gusting 5 -1.5
2020-Apr-04 14:32 120 0 gusting 2 -1.4
2020-Apr-04 14:22 130 1 gusting 2 -1.4
2020-Apr-04 14:12 060 5 gusting 7 -1.4
2020-Apr-04 14:02 050 6 gusting 7 -1.6
2020-Apr-04 13:42 040 4 gusting 6 -1.7
2020-Apr-04 13:32 050 2 gusting 6 -1.6
2020-Apr-04 13:22 070 4 gusting 6 -1.7
2020-Apr-04 13:12 060 4 gusting 6 -1.6
2020-Apr-04 13:02 070 4 gusting 6 -1.7
2020-Apr-04 12:52 090 4 gusting 7 -1.7
2020-Apr-04 12:42 090 4 gusting 6 -1.8
2020-Apr-04 12:32 110 2 gusting 5 -1.8
2020-Apr-04 12:22 130 1 gusting 4 -1.5
2020-Apr-04 12:12 090 1 gusting 4 -1.4
2020-Apr-04 12:02 060 4 gusting 6 -1.5
2020-Apr-04 11:52 060 4 gusting 6 -1.6
2020-Apr-04 11:42 060 6 gusting 7 -1.6
2020-Apr-04 11:32 060 5 gusting 7 -1.6
2020-Apr-04 11:22 050 6 gusting 7 -1.4
2020-Apr-04 11:12 060 6 gusting 8 -1.4
2020-Apr-04 11:02 060 6 gusting 9 -1.4
2020-Apr-04 10:52 060 6 gusting 7 -1.6
2020-Apr-04 10:42 060 5 gusting 6 -1.4
2020-Apr-04 10:32 060 5 gusting 7 -1.4
2020-Apr-04 10:22 080 4 gusting 6 -1.3
2020-Apr-04 10:12 070 5 gusting 6 -1.1
2020-Apr-04 10:02 060 5 gusting 6 -1.1
2020-Apr-04 09:52 050 5 gusting 6 -1.1
2020-Apr-04 09:42 050 6 gusting 7 -1.0
2020-Apr-04 09:32 050 6 gusting 7 -0.9
2020-Apr-04 09:22 050 5 gusting 7 -0.9
2020-Apr-04 09:12 060 2 gusting 5 -0.8
2020-Apr-04 09:02 050 4 gusting 6 -0.7
2020-Apr-04 08:52 050 5 gusting 6 -0.6
2020-Apr-04 08:42 050 1 gusting 6 -0.4
2020-Apr-04 08:32 090 0 gusting 2 -0.4
2020-Apr-04 08:22 070 2 gusting 5 -0.5
2020-Apr-04 08:12 070 4 gusting 6 -0.6
2020-Apr-04 08:02 060 6 gusting 8 -0.5
2020-Apr-04 07:52 070 6 gusting 7 -0.5
2020-Apr-04 07:42 050 4 gusting 7 -0.3
2020-Apr-04 07:32 020 5 gusting 7 -0.2
2020-Apr-04 07:22 360 5 gusting 7 -0.3
2020-Apr-04 07:12 360 4 gusting 6 -0.3
2020-Apr-04 07:02 020 4 gusting 6 -0.2
2020-Apr-04 06:52 010 5 gusting 8 -0.2
2020-Apr-04 06:42 010 6 gusting 9 -0.2
2020-Apr-04 06:32 010 7 gusting 12 -0.3
2020-Apr-04 06:22 010 8 gusting 13 -0.3
2020-Apr-04 06:12 010 9 gusting 13 -0.2
2020-Apr-04 06:02 360 9 gusting 13 -0.2
2020-Apr-04 05:52 340 9 gusting 13 -0.1
2020-Apr-04 05:42 340 7 gusting 12 -0.2
2020-Apr-04 05:32 340 8 gusting 12 -0.2
2020-Apr-04 05:22 350 8 gusting 11 -0.2
2020-Apr-04 05:12 350 9 gusting 13 -0.3
2020-Apr-04 05:02 350 9 gusting 13 -0.2
2020-Apr-04 04:42 350 9 gusting 13 -0.3
2020-Apr-04 04:32 350 11 gusting 13 -0.3
2020-Apr-04 04:22 340 11 gusting 13 -0.3
2020-Apr-04 04:12 340 11 gusting 13 -0.3
2020-Apr-04 04:02 340 11 gusting 13 -0.3
2020-Apr-04 03:52 340 11 gusting 13 -0.3
2020-Apr-04 03:42 350 9 gusting 14 -0.2
2020-Apr-04 03:32 330 8 gusting 12 -0.3
2020-Apr-04 03:22 330 9 gusting 13 -0.4
2020-Apr-04 03:12 330 7 gusting 13 -0.4
2020-Apr-04 03:02 340 6 gusting 9 -0.4
2020-Apr-04 02:52 340 6 gusting 9 -0.5
2020-Apr-04 02:42 330 6 gusting 8 -0.3
2020-Apr-04 02:32 250 2 gusting 6 -0.3
2020-Apr-04 02:22 230 4 gusting 6 -0.4
2020-Apr-04 02:12 230 4 gusting 6 -0.5
2020-Apr-04 02:02 220 4 gusting 6 -0.6
2020-Apr-04 01:52 230 4 gusting 6 -0.6
2020-Apr-04 01:42 230 4 gusting 5 -0.6
2020-Apr-04 01:32 240 4 gusting 5 -0.7
2020-Apr-04 01:12 210 4 gusting 6 -0.8
2020-Apr-04 01:02 210 2 gusting 5 -1.0
2020-Apr-04 00:52 220 2 gusting 6 -1.0
2020-Apr-04 00:42 230 2 gusting 6 -1.2
2020-Apr-04 00:32 210 4 gusting 6 -1.3
2020-Apr-04 00:22 200 5 gusting 6 -1.4
2020-Apr-04 00:12 210 5 gusting 6 -1.2
2020-Apr-03 23:52 110 1 gusting 6 -0.8
2020-Apr-03 23:42 060 5 gusting 8 -1.1
2020-Apr-03 23:32 060 6 gusting 11 -1.2
2020-Apr-03 23:22 060 6 gusting 9 -1.3
2020-Apr-03 23:12 060 7 gusting 11 -1.3
2020-Apr-03 23:02 060 9 gusting 13 -1.4
2020-Apr-03 22:52 070 11 gusting 14 -1.3
2020-Apr-03 22:42 070 12 gusting 15 -1.2
2020-Apr-03 22:32 070 13 gusting 18 -1.2
2020-Apr-03 22:22 070 13 gusting 17 -1.3
2020-Apr-03 22:12 070 12 gusting 15 -1.4
2020-Apr-03 22:02 070 11 gusting 13 -1.5
2020-Apr-03 21:52 080 9 gusting 14 -1.4
2020-Apr-03 21:42 080 9 gusting 13 -1.2
2020-Apr-03 21:32 090 6 gusting 13 -0.4
2020-Apr-03 21:22 090 2 gusting 6 -0.2
2020-Apr-03 21:12 080 6 gusting 9 -0.5
2020-Apr-03 21:02 140 4 gusting 11 -0.2
2020-Apr-03 20:52 090 7 gusting 14 -0.4
2020-Apr-03 20:42 090 8 gusting 13 -0.3
2020-Apr-03 20:32 090 7 gusting 13 -0.2
2020-Apr-03 20:22 100 6 gusting 13 0.3
2020-Apr-03 20:12 140 5 gusting 12 0.3
2020-Apr-03 20:02 150 6 gusting 13 0.3
2020-Apr-03 19:52 160 6 gusting 13 0.2
2020-Apr-03 19:42 140 5 gusting 11 0.6
2020-Apr-03 19:32 110 4 gusting 7 0.5
2020-Apr-03 19:22 110 4 gusting 8 0.7
2020-Apr-03 19:12 170 6 gusting 13 0.5
2020-Apr-03 19:02 170 7 gusting 14 0.5
2020-Apr-03 18:52 180 12 gusting 15 0.3
2020-Apr-03 18:42 170 7 gusting 14 0.6
2020-Apr-03 18:32 180 7 gusting 15 0.7
2020-Apr-03 18:22 150 4 gusting 8 1.1
2020-Apr-03 18:12 160 2 gusting 6 1.0
2020-Apr-03 18:02 150 2 gusting 6 0.9
2020-Apr-03 17:52 140 2 gusting 6 0.9
2020-Apr-03 17:42 120 4 gusting 8 0.6
2020-Apr-03 17:32 140 4 gusting 6 0.6
2020-Apr-03 17:22 150 4 gusting 13 0.5
2020-Apr-03 17:12 150 2 gusting 8 0.4
2020-Apr-03 17:02 140 1 gusting 5 0.3
2020-Apr-03 16:52 070 1 gusting 4 0.1
2020-Apr-03 16:42 060 2 gusting 5 -0.0
2020-Apr-03 16:32 060 4 gusting 6 -0.0
2020-Apr-03 16:22 050 4 gusting 7 -0.0
2020-Apr-03 16:12 060 4 gusting 7 -0.0
2020-Apr-03 16:02 150 2 gusting 6 -0.0
2020-Apr-03 15:52 140 0 gusting 4 -0.1
2020-Apr-03 15:42 130 1 gusting 5 -0.1
2020-Apr-03 15:32 330 1 gusting 4 -0.2
2020-Apr-03 15:22 090 1 gusting 4 -0.3
2020-Apr-03 15:12 100 4 gusting 6 -0.2
2020-Apr-03 15:02 080 4 gusting 6 -0.2
2020-Apr-03 14:52 080 4 gusting 6 -0.3
2020-Apr-03 14:42 090 4 gusting 6 -0.2
2020-Apr-03 14:32 070 4 gusting 6 -0.2
2020-Apr-03 14:22 060 5 gusting 6 -0.4
2020-Apr-03 14:12 080 4 gusting 6 -0.6
2020-Apr-03 14:02 090 2 gusting 5 -0.7
2020-Apr-03 13:52 070 5 gusting 7 -0.7
2020-Apr-03 13:42 060 6 gusting 8 -0.6
2020-Apr-03 13:32 080 4 gusting 6 -0.4
2020-Apr-03 13:22 090 2 gusting 5 -0.4
2020-Apr-03 13:12 140 0 gusting 2 -0.5
2020-Apr-03 13:02 090 1 gusting 4 -0.4
2020-Apr-03 12:52 090 2 gusting 5 -0.5
2020-Apr-03 12:42 090 2 gusting 5 -0.5
2020-Apr-03 11:22 100 2 gusting 5 -0.6
2020-Apr-03 11:12 100 2 gusting 5 -0.6
2020-Apr-03 11:02 090 4 gusting 6 -0.5
2020-Apr-03 10:52 090 4 gusting 6 -0.4
2020-Apr-03 10:42 090 4 gusting 7 -0.3
2020-Apr-03 10:32 100 4 gusting 6 -0.1
2020-Apr-03 10:22 090 4 gusting 6 -0.0
2020-Apr-03 10:12 080 4 gusting 6 -0.2
2020-Apr-03 10:02 080 2 gusting 5 -0.1
2020-Apr-03 09:52 090 4 gusting 6 -0.0
2020-Apr-03 09:42 080 6 gusting 6 -0.0
2020-Apr-03 09:32 090 5 gusting 6 -0.0
2020-Apr-03 09:22 090 5 gusting 8 -0.0
2020-Apr-03 09:12 090 6 gusting 7 0.2
2020-Apr-03 09:02 080 6 gusting 7 0.1
2020-Apr-03 08:52 090 5 gusting 6 -0.0
2020-Apr-03 08:42 080 5 gusting 6 0.1
2020-Apr-03 08:32 080 6 gusting 8 0.3
2020-Apr-03 08:22 080 6 gusting 8 0.2
2020-Apr-03 08:12 080 6 gusting 8 0.3
2020-Apr-03 08:02 080 6 gusting 7 0.5